GW0378 Weather Reports


time (UTC)temp
C
wind
direction
speed
KPH
gust
KPH
rain 1hr
cm
rain 24hr
cm
rain mn
cm
humidity
%
barometer
mb
20260902113137 13 117 8.0 12.9 0.00 0.00 0.00 82 1009.4
20260902112633 12 129 8.0 16.1 0.00 0.00 0.00 83 1009.4
20260902112130 13 105 12.9 17.7 0.00 0.00 0.00 83 1009.4
20260902111625 12 106 11.3 14.5 0.00 0.00 0.00 83 1010.1
20260902111121 12 98 11.3 12.9 0.00 0.00 0.00 85 1010.3
20260902110617 12 94 3.2 8.0 0.00 0.00 0.00 85 1010.5
20260902110113 12 97 8.0 9.7 0.00 0.00 0.00 86 1010.8
20260902105612 12 177 3.2 4.8 0.00 0.00 0.00 85 1011.0
20260902105107 12 70 4.8 6.4 0.00 0.00 0.00 84 1011.1
20260902104602 12 244 4.8 8.0 0.00 0.00 0.00 85 1011.5
20260902104057 12 90 0.0 4.8 0.00 0.00 0.00 84 1011.5
20260902103552 12 103 4.8 6.4 0.00 0.00 0.00 86 1011.1
20260902103047 12 90 1.6 8.0 0.00 0.00 0.00 84 1011.4
20260902102543 13 151 0.0 3.2 0.00 0.00 0.00 83 1011.4
20260902102041 13 47 4.8 4.8 0.00 0.00 0.00 82 1011.3
20260902101536 13 5 3.2 11.3 0.00 0.00 0.00 81 1011.1
20260902101034 13 85 3.2 4.8 0.00 0.00 0.00 84 1011.3
20260902100535 13 132 3.2 3.2 0.00 0.00 0.00 84 1011.4
20260902100035 12 60 4.8 4.8 0.00 0.00 0.00 85 1011.5
20260902095534 13 140 0.0 3.2 0.00 0.00 0.00 85 1011.5
20260902095033 13 98 3.2 4.8 0.00 0.00 0.00 84 1011.3
20260902094529 13 109 4.8 6.4 0.00 0.00 0.00 85 1011.5
20260902094025 13 150 3.2 6.4 0.00 0.00 0.00 88 1011.4
20260902093525 13 135 3.2 4.8 0.00 0.00 0.00 87 1011.5
20260902093020 13 145 0.0 3.2 0.00 0.00 0.00 87 1011.5
20260902092514 13 106 0.0 0.0 0.00 0.00 0.00 86 1011.6
20260902092009 13 96 3.2 3.2 0.00 0.00 0.00 85 1011.3
20260902091504 13 29 0.0 1.6 0.00 0.00 0.00 84 1011.4
20260902091000 13 217 4.8 4.8 0.00 0.00 0.00 82 1011.1
20260902090455 13 111 1.6 4.8 0.00 0.00 0.00 80 1011.0
20260902085954 14 110 6.4 8.0 0.00 0.00 0.00 80 1011.0
20260902085449 13 106 4.8 6.4 0.00 0.00 0.00 83 1011.0
20260902084944 14 69 1.6 4.8 0.00 0.00 0.00 84 1011.1
20260902084441 13 106 3.2 4.8 0.00 0.00 0.00 84 1011.3
20260902083937 14 112 3.2 4.8 0.00 0.00 0.00 83 1011.4
20260902083436 14 270 0.0 4.8 0.00 0.00 0.00 82 1011.5
20260902082931 14 45 3.2 4.8 0.00 0.00 0.00 82 1011.5
20260902082427 14 172 0.0 1.6 0.00 0.00 0.00 81 1011.4
20260902081923 15 5 1.6 3.2 0.00 0.00 0.00 81 1011.4
20260902081420 14 262 0.0 1.6 0.00 0.00 0.00 81 1011.4
20260902080914 14 180 1.6 3.2 0.00 0.00 0.00 80 1011.6
20260902080410 15 111 1.6 3.2 0.00 0.00 0.00 79 1011.5
20260902075909 15 8 0.0 1.6 0.00 0.00 0.00 78 1011.5
20260902075406 15 26 1.6 4.8 0.00 0.00 0.00 77 1011.4
20260902074901 15 75 1.6 3.2 0.00 0.00 0.00 75 1011.7
20260902074357 15 183 3.2 4.8 0.00 0.00 0.00 75 1011.7
20260902073851 15 90 1.6 3.2 0.00 0.00 0.00 75 1011.6
20260902073348 15 246 3.2 3.2 0.00 0.00 0.00 75 1011.8
20260902072844 16 0 4.8 8.0 0.00 0.00 0.00 74 1012.0
20260902072339 16 277 0.0 3.2 0.00 0.00 0.00 71 1011.9
20260902071835 16 131 4.8 4.8 0.00 0.00 0.00 71 1011.9
20260902071329 16 103 1.6 8.0 0.00 0.00 0.00 71 1011.8
20260902070826 15 90 1.6 3.2 0.00 0.00 0.00 73 1012.4
20260902070326 15 202 3.2 4.8 0.00 0.00 0.00 76 1012.3
20260902065825 15 166 0.0 4.8 0.00 0.00 0.00 77 1012.4
20260902065320 15 117 4.8 4.8 0.00 0.00 0.00 77 1012.1
20260902064815 15 180 0.0 4.8 0.00 0.00 0.00 78 1011.9
20260902064312 15 99 0.0 4.8 0.00 0.00 0.00 78 1012.5
20260902063807 15 85 3.2 11.3 0.00 0.00 0.00 78 1012.3
20260902063307 15 20 0.0 6.4 0.00 0.00 0.00 78 1012.7
20260902062801 15 107 6.4 11.3 0.00 0.00 0.00 78 1012.9
20260902062256 15 90 0.0 3.2 0.00 0.00 0.00 77 1012.7
20260902061755 15 20 4.8 4.8 0.00 0.00 0.00 77 1012.8
20260902061250 15 38 3.2 4.8 0.00 0.00 0.00 76 1013.0
20260902060748 15 90 1.6 4.8 0.00 0.00 0.00 75 1013.1
20260902060242 16 312 3.2 4.8 0.00 0.00 0.00 74 1013.1
20260902055738 15 275 3.2 4.8 0.00 0.05 0.05 74 1012.7
20260902055234 15 218 4.8 6.4 0.00 0.05 0.05 75 1012.8
20260902054729 15 168 1.6 6.4 0.00 0.05 0.05 76 1012.8
20260902054225 15 263 0.0 4.8 0.00 0.05 0.05 78 1012.5
20260902053720 15 237 0.0 6.4 0.00 0.05 0.05 78 1012.5
20260902053220 15 263 0.0 9.7 0.00 0.05 0.05 79 1012.6
20260902052719 15 235 4.8 6.4 0.00 0.05 0.05 78 1012.4
20260902052215 16 166 1.6 4.8 0.00 0.05 0.05 74 1012.1
20260902051714 16 21 3.2 4.8 0.00 0.05 0.05 74 1012.0
20260902051209 15 151 0.0 1.6 0.00 0.05 0.05 74 1012.0
20260902050703 16 98 0.0 3.2 0.00 0.05 0.05 75 1011.9
20260902050159 16 112 3.2 8.0 0.00 0.05 0.05 74 1012.0
20260902045653 16 104 4.8 4.8 0.00 0.05 0.05 74 1012.1
20260902045150 16 94 8.0 8.0 0.00 0.05 0.05 74 1012.5
20260902044650 16 79 3.2 4.8 0.00 0.05 0.05 72 1012.9
20260902044146 16 90 3.2 11.3 0.00 0.05 0.05 71 1013.4
20260902043641 16 263 1.6 8.0 0.00 0.05 0.05 71 1013.2
20260902043136 16 253 3.2 9.7 0.00 0.05 0.05 70 1013.8
20260902042635 17 252 9.7 11.3 0.00 0.05 0.05 69 1013.9
20260902042131 16 270 1.6 3.2 0.00 0.05 0.05 68 1013.7
20260902041630 17 114 0.0 1.6 0.00 0.05 0.05 69 1013.6
20260902041125 16 108 4.8 8.0 0.00 0.05 0.05 69 1013.8
20260902040625 17 186 1.6 4.8 0.00 0.05 0.05 68 1013.9
20260902040120 17 50 6.4 8.0 0.00 0.05 0.05 67 1013.6
20260902035618 17 103 6.4 14.5 0.00 0.05 0.05 67 1013.9
20260902035114 17 107 11.3 20.9 0.00 0.05 0.05 67 1013.9
20260902034613 17 103 0.0 19.3 0.00 0.05 0.05 67 1013.8
20260902034113 16 161 4.8 8.0 0.00 0.05 0.05 70 1013.6
20260902033612 16 112 11.3 19.3 0.00 0.05 0.05 71 1013.8
20260902033108 17 138 4.8 4.8 0.00 0.05 0.05 70 1013.7
20260902032606 17 53 0.0 8.0 0.00 0.05 0.05 70 1013.8
20260902032101 17 246 0.0 8.0 0.00 0.05 0.05 70 1013.9
20260902031601 17 71 8.0 14.5 0.00 0.05 0.05 70 1013.8
20260902031057 16 34 6.4 11.3 0.05 0.05 0.05 72 1013.6
20260902030552 16 135 0.0 9.7 0.05 0.05 0.05 74 1013.7
20260902030052 16 86 4.8 8.0 0.05 0.03 0.03 74 1013.5
20260902025552 16 99 0.0 3.2 0.13 0.03 0.03 75 1013.8
20260902025047 16 120 0.0 3.2 0.13 0.03 0.03 74 1013.8
20260902024543 17 172 0.0 9.7 0.05 0.00 0.00 71 1013.9
20260902024042 17 217 6.4 8.0 0.00 0.00 0.00 67 1013.4
20260902023538 18 307 3.2 17.7 0.00 0.00 0.00 65 1013.6
20260902023033 18 259 8.0 11.3 0.00 0.00 0.00 63 1013.5
20260902022527 18 169 3.2 9.7 0.00 0.00 0.00 61 1013.4
20260902022023 18 220 4.8 4.8 0.00 0.00 0.00 62 1013.5
20260902021519 18 173 0.0 6.4 0.00 0.00 0.00 63 1013.2
20260902021014 18 180 0.0 4.8 0.00 0.00 0.00 63 1013.2
20260902020509 18 195 1.6 4.8 0.00 0.00 0.00 62 1013.4
20260902020005 18 270 0.0 6.4 0.00 0.00 0.00 62 1013.4
20260902015501 18 121 0.0 9.7 0.00 0.00 0.00 61 1013.4
20260902014956 19 243 6.4 29.0 0.00 0.00 0.00 56 1013.5
20260902014452 20 253 3.2 9.7 0.00 0.00 0.00 53 1013.5
20260902013952 20 154 6.4 24.1 0.00 0.00 0.00 53 1013.4
20260902013447 20 206 9.7 9.7 0.00 0.00 0.00 53 1012.7
20260902012942 20 121 4.8 9.7 0.00 0.00 0.00 54 1012.6
20260902012438 20 79 3.2 9.7 0.00 0.00 0.00 55 1012.0
20260902011933 20 238 6.4 24.1 0.00 0.00 0.00 55 1011.9
20260902011428 20 214 6.4 19.3 0.00 0.00 0.00 52 1011.5
20260902010928 20 205 4.8 33.8 0.00 0.00 0.00 50 1011.3
20260902010423 21 223 8.0 37.0 0.00 0.00 0.00 48 1011.3
20260902005922 21 205 9.7 14.5 0.00 0.00 0.00 48 1011.1
20260902005421 22 234 17.7 19.3 0.00 0.00 0.00 46 1011.1
20260902004918 22 217 9.7 16.1 0.00 0.00 0.00 45 1010.8
20260902004417 23 211 19.3 25.7 0.00 0.00 0.00 42 1010.8
20260902003912 23 212 8.0 29.0 0.00 0.00 0.00 39 1010.8
20260902003407 23 205 16.1 32.2 0.00 0.00 0.00 38 1010.5
20260902002903 25 229 4.8 35.4 0.00 0.00 0.00 36 1010.5
20260902002403 25 236 22.5 38.6 0.00 0.00 0.00 35 1009.7
20260902001857 25 247 24.1 27.4 0.00 0.00 0.00 34 1009.9
20260902001352 26 273 16.1 30.6 0.00 0.00 0.00 31 1009.6
20260902000847 27 210 9.7 22.5 0.00 0.00 0.00 29 1009.1
20260902000344 27 236 16.1 32.2 0.00 0.00 0.00 29 1009.0
20260901235837 27 256 14.5 24.1 0.00 0.00 0.00 29 1008.6
20260901235337 27 292 8.0 24.1 0.00 0.00 0.00 28 1008.6
20260901234832 28 248 4.8 8.0 0.00 0.00 0.00 28 1008.5
20260901234326 28 231 4.8 14.5 0.00 0.00 0.00 28 1008.3
20260901233821 28 300 1.6 11.3 0.00 0.00 0.00 29 1008.5
20260901233317 28 266 8.0 11.3 0.00 0.00 0.00 28 1007.9
20260901232813 28 308 0.0 16.1 0.00 0.00 0.00 28 1007.9
20260901232307 28 270 4.8 6.4 0.00 0.00 0.00 28 1007.9
20260901231804 28 274 4.8 4.8 0.00 0.00 0.00 27 1007.8
20260901231300 28 283 3.2 4.8 0.00 0.00 0.00 26 1007.7
20260901230756 28 276 0.0 3.2 0.00 0.00 0.00 27 1007.8
20260901230255 28 262 3.2 4.8 0.00 0.00 0.00 27 1007.6
20260901225750 28 283 3.2 4.8 0.00 0.00 0.00 27 1007.8
20260901225244 28 281 3.2 4.8 0.00 0.00 0.00 28 1007.7
20260901224741 28 259 4.8 4.8 0.00 0.00 0.00 28 1007.6
20260901224236 28 337 1.6 3.2 0.00 0.00 0.00 27 1007.7
20260901223732 28 292 3.2 6.4 0.00 0.00 0.00 27 1007.7
20260901223226 29 304 3.2 6.4 0.00 0.00 0.00 28 1007.9
20260901222723 28 258 3.2 8.0 0.00 0.00 0.00 28 1007.8
20260901222219 29 277 4.8 4.8 0.00 0.00 0.00 29 1007.8
20260901221715 29 280 6.4 9.7 0.00 0.00 0.00 27 1007.6
20260901221211 30 308 3.2 6.4 0.00 0.00 0.00 25 1007.9
20260901220709 29 291 0.0 8.0 0.00 0.00 0.00 25 1008.0
20260901220209 29 255 8.0 11.3 0.00 0.00 0.00 27 1008.0
20260901215708 30 180 1.6 8.0 0.00 0.00 0.00 27 1008.0
20260901215202 29 275 6.4 8.0 0.00 0.00 0.00 29 1008.3
20260901214700 30 325 4.8 4.8 0.00 0.00 0.00 27 1008.1
20260901214154 30 345 3.2 6.4 0.00 0.00 0.00 28 1008.4
20260901213649 29 274 0.0 6.4 0.00 0.00 0.00 26 1008.3
20260901213144 29 270 4.8 11.3 0.00 0.00 0.00 28 1008.6
20260901212643 29 273 4.8 12.9 0.00 0.00 0.00 28 1008.4
20260901212139 29 342 3.2 6.4 0.00 0.00 0.00 26 1008.8
20260901211634 29 298 4.8 6.4 0.00 0.00 0.00 30 1009.0
20260901211131 28 23 1.6 6.4 0.00 0.00 0.00 28 1009.0
20260901210626 28 24 3.2 4.8 0.00 0.00 0.00 29 1009.1
20260901210122 28 48 3.2 6.4 0.00 0.00 0.00 28 1009.3
20260901205618 28 350 4.8 4.8 0.00 0.00 0.00 30 1009.4
20260901205117 27 270 1.6 8.0 0.00 0.00 0.00 30 1009.6
20260901204613 27 247 4.8 8.0 0.00 0.00 0.00 29 1009.6
20260901204108 27 261 6.4 8.0 0.00 0.00 0.00 30 1009.7
20260901203607 27 265 6.4 6.4 0.00 0.00 0.00 32 1009.5
20260901203102 26 281 4.8 8.0 0.00 0.00 0.00 32 1009.7
20260901202602 26 309 3.2 6.4 0.00 0.00 0.00 32 1009.9
20260901202059 26 276 3.2 6.4 0.00 0.00 0.00 31 1010.0
20260901201554 26 329 4.8 6.4 0.00 0.00 0.00 36 1010.1
20260901201053 26 270 0.0 3.2 0.00 0.00 0.00 33 1010.0
20260901200553 25 203 0.0 4.8 0.00 0.00 0.00 33 1010.3
20260901200048 25 297 3.2 4.8 0.00 0.00 0.00 34 1010.4
20260901195546 24 256 4.8 4.8 0.00 0.00 0.00 36 1010.4
20260901195046 24 23 1.6 4.8 0.00 0.00 0.00 34 1010.5
20260901194541 24 312 3.2 6.4 0.00 0.00 0.00 35 1010.5
20260901194037 24 266 4.8 8.0 0.00 0.00 0.00 36 1010.6
20260901193536 23 270 3.2 6.4 0.00 0.00 0.00 36 1010.8
20260901193031 23 252 4.8 8.0 0.00 0.00 0.00 37 1010.8
20260901192526 23 206 3.2 6.4 0.00 0.00 0.00 37 1011.1
20260901192022 23 332 3.2 6.4 0.00 0.00 0.00 36 1011.3
20260901191518 23 251 8.0 8.0 0.00 0.00 0.00 38 1011.1
20260901191014 22 243 3.2 6.4 0.00 0.00 0.00 39 1011.5
20260901190509 22 290 3.2 6.4 0.00 0.00 0.00 40 1011.6
20260901190008 21 282 6.4 6.4 0.00 0.00 0.00 39 1011.6
20260901185501 22 253 4.8 8.0 0.00 0.00 0.00 42 1011.9
20260901185001 21 299 4.8 6.4 0.00 0.00 0.00 41 1012.0
20260901184456 21 303 3.2 8.0 0.00 0.00 0.00 40 1012.1
20260901183951 21 103 1.6 3.2 0.00 0.00 0.00 40 1012.1
20260901183445 21 273 4.8 8.0 0.00 0.00 0.00 43 1012.3
20260901182941 21 270 4.8 4.8 0.00 0.00 0.00 43 1012.1
20260901182437 20 324 3.2 4.8 0.00 0.00 0.00 43 1012.5
20260901181931 20 275 4.8 6.4 0.00 0.00 0.00 42 1012.6
20260901181426 20 305 4.8 4.8 0.00 0.00 0.00 45 1012.6
20260901180925 19 273 4.8 8.0 0.00 0.00 0.00 43 1012.6
20260901180424 19 346 4.8 4.8 0.00 0.00 0.00 44 1012.9
20260901175922 19 309 4.8 4.8 0.00 0.00 0.00 44 1012.9
20260901175418 18 276 3.2 6.4 0.00 0.00 0.00 44 1013.2
20260901174913 18 266 4.8 6.4 0.00 0.00 0.00 44 1013.2
20260901174409 18 194 0.0 4.8 0.00 0.00 0.00 43 1013.2
20260901173904 18 276 4.8 6.4 0.00 0.00 0.00 45 1013.4
20260901173359 17 273 6.4 8.0 0.00 0.00 0.00 46 1013.2
20260901172855 18 238 4.8 6.4 0.00 0.00 0.00 45 1013.4
20260901172355 18 197 3.2 3.2 0.00 0.00 0.00 43 1013.6
20260901171853 17 341 3.2 4.8 0.00 0.00 0.00 46 1013.8
20260901171352 16 337 4.8 9.7 0.00 0.00 0.00 48 1013.8
20260901170851 16 206 3.2 4.8 0.00 0.00 0.00 48 1013.8
20260901170346 16 285 4.8 8.0 0.00 0.00 0.00 49 1013.9
20260901165846 16 323 8.0 8.0 0.00 0.00 0.00 50 1013.8
20260901165340 16 276 6.4 8.0 0.00 0.00 0.00 50 1014.0
20260901164837 17 307 6.4 9.7 0.00 0.00 0.00 48 1014.0
20260901164331 16 266 6.4 8.0 0.00 0.00 0.00 49 1014.0
20260901163826 16 21 3.2 6.4 0.00 0.00 0.00 49 1013.9
20260901163321 15 312 3.2 4.8 0.00 0.00 0.00 56 1014.0
20260901162816 15 285 0.0 4.8 0.00 0.00 0.00 52 1014.1
20260901162315 15 306 0.0 4.8 0.00 0.00 0.00 55 1014.2
20260901161814 15 160 0.0 4.8 0.00 0.00 0.00 54 1014.4
20260901161308 14 255 3.2 6.4 0.00 0.00 0.00 57 1014.6
20260901160804 14 279 3.2 4.8 0.00 0.00 0.00 57 1014.2
20260901160301 14 220 3.2 4.8 0.00 0.00 0.00 57 1014.5
20260901155759 13 14 3.2 6.4 0.00 0.00 0.00 59 1014.1
20260901155254 13 264 0.0 6.4 0.00 0.00 0.00 60 1014.4
20260901154750 13 261 3.2 6.4 0.00 0.00 0.00 60 1014.2
20260901154244 14 342 1.6 4.8 0.00 0.00 0.00 56 1014.5
20260901153739 13 26 4.8 4.8 0.00 0.00 0.00 60 1014.4
20260901153239 12 47 4.8 4.8 0.00 0.00 0.00 61 1014.6
20260901152738 12 19 4.8 4.8 0.00 0.00 0.00 63 1014.7
20260901152237 12 0 4.8 4.8 0.00 0.00 0.00 63 1014.7
20260901151732 12 348 3.2 4.8 0.00 0.00 0.00 61 1014.5
20260901151227 12 335 4.8 4.8 0.00 0.00 0.00 61 1014.4
20260901150726 12 20 4.8 4.8 0.00 0.00 0.00 60 1014.7
20260901150225 12 24 3.2 4.8 0.00 0.00 0.00 62 1014.7
20260901145723 12 19 3.2 6.4 0.00 0.00 0.00 63 1014.7
20260901145222 12 30 3.2 4.8 0.00 0.00 0.00 63 1014.6
20260901144718 12 4 3.2 3.2 0.00 0.00 0.00 62 1015.0
20260901144213 12 36 3.2 3.2 0.00 0.00 0.00 62 1014.7
20260901143708 13 90 0.0 4.8 0.00 0.00 0.00 59 1014.6
20260901143205 12 66 0.0 3.2 0.00 0.00 0.00 62 1014.6
20260901142701 12 23 3.2 3.2 0.00 0.00 0.00 63 1014.8
20260901142200 12 95 0.0 3.2 0.00 0.00 0.00 63 1014.8
20260901141655 11 82 3.2 6.4 0.00 0.00 0.00 64 1014.6
20260901141155 10 107 3.2 4.8 0.00 0.00 0.00 67 1014.6
20260901140654 10 90 4.8 6.4 0.00 0.00 0.00 70 1014.4
20260901140153 10 98 0.0 1.6 0.00 0.00 0.00 70 1014.7
20260901135648 9 45 3.2 3.2 0.00 0.00 0.00 72 1014.6
20260901135142 9 59 3.2 3.2 0.00 0.00 0.00 69 1014.4
20260901134638 9 59 3.2 3.2 0.00 0.00 0.00 70 1014.2
20260901134133 8 53 3.2 3.2 0.00 0.00 0.00 70 1014.4
20260901133632 8 74 3.2 3.2 0.00 0.00 0.00 70 1014.1
20260901133131 8 14 0.0 4.8 0.00 0.00 0.00 69 1014.1
20260901132626 9 66 0.0 3.2 0.00 0.00 0.00 67 1014.1
20260901132125 10 90 3.2 8.0 0.00 0.00 0.00 66 1014.1
20260901131620 10 117 3.2 8.0 0.00 0.00 0.00 65 1014.1
20260901131114 10 106 6.4 8.0 0.00 0.00 0.00 65 1014.0
20260901130609 10 115 3.2 6.4 0.00 0.00 0.00 63 1013.8
20260901130108 10 121 3.2 6.4 0.00 0.00 0.00 65 1013.9
20260901125606 10 106 4.8 11.3 0.00 0.00 0.00 63 1013.9
20260901125101 10 119 8.0 14.5 0.00 0.00 0.00 63 1013.7
20260901124556 10 125 3.2 8.0 0.00 0.00 0.00 66 1013.8
20260901124051 9 145 1.6 4.8 0.00 0.00 0.00 67 1013.8
20260901123545 9 157 0.0 6.4 0.00 0.00 0.00 66 1013.7
20260901123045 9 90 1.6 4.8 0.00 0.00 0.00 67 1013.6
20260901122544 10 114 1.6 4.8 0.00 0.00 0.00 66 1013.7
20260901122044 10 127 3.2 4.8 0.00 0.00 0.00 65 1013.8
20260901121544 10 114 0.0 3.2 0.00 0.00 0.00 64 1013.8
20260901121039 10 66 0.0 4.8 0.00 0.00 0.00 64 1013.9
20260901120539 10 168 3.2 3.2 0.00 0.00 0.00 65 1013.8
20260901120035 10 157 0.0 4.8 0.00 0.00 0.00 63 1013.7
20260901115530 10 112 3.2 11.3 0.00 0.00 0.00 62 1013.7
20260901115027 10 117 8.0 11.3 0.00 0.00 0.00 61 1013.8
20260901114523 11 109 8.0 11.3 0.00 0.00 0.00 61 1013.8
20260901114021 11 106 4.8 9.7 0.00 0.00 0.00 60 1013.9